Regional Weather Roundup
Issued by NWS

Home | Current Version | Previous Version | Text Only | Print | Product List | Glossary On
Versions: 1 2 3 4 5 6 7 8 9 10 11 12 13 14 15 16 17 18 19 20 21 22 23 24 25 26 27 28 29 30 31 32 33 34 35 36 37 38 39 40 41 42 43 44 45 46 47 48 49 50
000
ASUS44 KBMX 311010
RWRAL

ALABAMA REGIONAL WEATHER ROUNDUP
NATIONAL WEATHER SERVICE BIRMINGHAM AL
500 AM CDT TUE MAY 31 2016

NOTE: "FAIR" INDICATES FEW OR NO CLOUDS BELOW 12,000 FEET
WITH NO SIGNIFICANT WEATHER AND/OR OBSTRUCTIONS TO VISIBILITY.

THE REMARK "TC" DENOTES TEMPERATURE IN DEGREES CELSIUS.

ALZ001>011-014-016>018-020-311100-
NORTH ALABAMA

CITY           SKY/WX    TMP DP  RH WIND       PRES   REMARKS
MUSCLE SHOALS  CLOUDY    67  62  84 CALM      29.96R
HUNTSVILLE     PTCLDY    66  60  81 CALM      29.94R
DECATUR        CLOUDY    65  61  87 CALM      29.95R
HALEYVILLE     FAIR      64  61  90 CALM      29.97
GADSDEN        CLEAR     63  62  97 CALM      29.95R
$$

ALZ012-013-022-023-030>036-040>044-311100-
WEST CENTRAL ALABAMA

CITY           SKY/WX    TMP DP  RH WIND       PRES   REMARKS
TUSCALOOSA     CLOUDY    70  68  93 CALM      29.91S
$$

ALZ015-024>027-033>036-040>044-311100-
CENTRAL ALABAMA

CITY           SKY/WX    TMP DP  RH WIND       PRES   REMARKS
BIRMINGHAM     PTCLDY    69  65  86 CALM      29.95S
MONTGOMERY     CLEAR     70  65  84 CALM      29.91S
SHELBY CO ARPT PTCLDY    68  65  90 CALM      29.93S
MAXWELL AFB    CLEAR     67  67  98 S1        29.90S
GREENVILLE     FAIR      70  65  84 CALM      29.91S
$$

ALZ019-021-028-029-037-038-045>048-311100-
EAST CENTRAL ALABAMA

CITY           SKY/WX    TMP DP  RH WIND       PRES   REMARKS
ANNISTON       CLEAR     66  62  87 CALM      29.94R
ALEXANDER CITY CLEAR     67  67 100 CALM      29.94S
AUBURN         CLOUDY   N/A N/A N/A NW6       29.94S
$$

ALZ051>064-311100-
SOUTHWEST ALABAMA

CITY           SKY/WX    TMP DP  RH WIND       PRES   REMARKS
MOBILE         CLEAR     69  69 100 W3        29.93S
BROOKLEY FIELD CLEAR     72  70  93 CALM      29.93R
EVERGREEN      CLEAR     66  64  93 CALM      29.92F
$$

ALZ049-050-065>069-311100-
SOUTHEAST ALABAMA

CITY           SKY/WX    TMP DP  RH WIND       PRES   REMARKS
DOTHAN         CLEAR     72  67  84 W5        29.95R
OZARK          CLEAR     68  67  94 CALM      29.91S
TROY           PTCLDY    67  65  93 CALM      29.93R
EUFAULA        FAIR      66  63  90 CALM      29.90S
$$



USA.gov is the U.S. government's official web portal to all federal, state and local government web resources and services.